Location: ??????
(38.0677°N, 22.9870°E)
Time: 14:41:46
(UTC+00:00)

Cosmos 1850 Rocket - Pass Details

Date: 23 May 2024
Orbit: 753 x 782 km, 74.0° (Epoch: 13 June)

Event Time Altitude Azimuth Distance (km) Brightness Sun altitude
Exits shadow 00:06:01 76° 120° (ESE) 803 3.9 -26.7°
Maximum altitude 00:06:08 76° 106° (ESE) 802 4.0 -26.7°
Drops below altitude 10° 00:11:24 10° 22° (NNE) 2,322 7.5 -26.2°
Sets 00:13:47 0° 21° (NNE) 3,248 8.6 -26.0°
